Council Bluffs, IA

6:20 PM CDT on May 23, 2018 (GMT -0500)
Council Bluffs Municipal

Weather History for KCBF - September, 2012

Change the Weather History Date:

Monday, September 10, 2012

  Actual Average Record
Temperature  
Mean Temperature 68 °F -  
Max Temperature 84 °F 78 °F 95 °F (2013)
Min Temperature 51 °F 56 °F 50 °F (1999)
Cooling Degree Days 2    
Growing Degree Days 18 (Base 50)    
Moisture  
Dew Point 48 °F    
Average Humidity 51    
Maximum Humidity 82    
Minimum Humidity 27    
Precipitation  
Precipitation 0.00 in - - ()
Sea Level Pressure  
Sea Level Pressure 30.03 in    
Wind  
Wind Speed 11 mph (South)    
Max Wind Speed 24 mph    
Max Gust Speed 30 mph    
Visibility 10 miles    
Events      
Averages and records for this station are not official NWS values.
T = Trace of Precipitation, MM = Missing Value Source: NWS Daily Summary

Daily Weather History Graph

Daily Weather History Graph

Search for Another Location

Airport or City:

Astronomy

Sep. 10, 2012 Rise Set
Actual Time 6:58 AM CDT 7:39 PM CDT
Civil Twilight 6:31 AM CDT 8:07 PM CDT
Nautical Twilight 5:58 AM CDT 8:40 PM CDT
Astronomical Twilight 5:23 AM CDT 9:14 PM CDT
Moon 1:18 AM CDT (9/10) 4:12 PM CDT (9/10)
Length of Visible Light 13h 36m
Length of Day
12h 40m
Waning Crescent, 30% of the Moon is Illuminated
Sep 10
Waning Crescent
Sep 15
New
Sep 22
First Quarter
Sep 29
Full
Oct 8
Last Quarter

Hourly Weather History & Observations

Time (CDT) Temp. Dew Point Humidity Pressure Visibility Wind Dir Wind Speed Gust Speed Precip Events Conditions
12:15 AM 60.8 °F 46.4 °F 59% 30.14 in 10.0 mi South 5.8 mph - N/A   Clear
12:35 AM 60.8 °F 46.4 °F 59% 30.13 in 10.0 mi South 5.8 mph - N/A   Clear
12:55 AM 60.8 °F 46.4 °F 59% 30.13 in 10.0 mi South 6.9 mph - N/A   Clear
1:15 AM 60.8 °F 46.4 °F 59% 30.13 in 10.0 mi South 6.9 mph - N/A   Clear
1:35 AM 59.0 °F 46.4 °F 63% 30.13 in 10.0 mi South 6.9 mph - N/A   Clear
1:55 AM 57.2 °F 46.4 °F 67% 30.13 in 10.0 mi South 5.8 mph - N/A   Clear
2:15 AM 59.0 °F 46.4 °F 63% 30.13 in 10.0 mi South 6.9 mph - N/A   Clear
2:35 AM 59.0 °F 46.4 °F 63% 30.12 in 10.0 mi South 8.1 mph - N/A   Clear
2:55 AM 57.2 °F 46.4 °F 67% 30.12 in 10.0 mi South 6.9 mph - N/A   Clear
3:15 AM 57.2 °F 46.4 °F 67% 30.11 in 10.0 mi South 8.1 mph - N/A   Clear
3:35 AM 57.2 °F 46.4 °F 67% 30.12 in 10.0 mi South 8.1 mph - N/A   Clear
3:55 AM 55.4 °F 46.4 °F 72% 30.11 in 10.0 mi SSE 8.1 mph - N/A   Clear
4:15 AM 55.4 °F 46.4 °F 72% 30.11 in 10.0 mi South 6.9 mph - N/A   Clear
4:35 AM 53.6 °F 46.4 °F 77% 30.11 in 10.0 mi SSE 6.9 mph - N/A   Clear
4:55 AM 53.6 °F 46.4 °F 77% 30.11 in 10.0 mi SSE 6.9 mph - N/A   Clear
5:15 AM 53.6 °F 46.4 °F 77% 30.11 in 10.0 mi SSE 5.8 mph - N/A   Clear
5:35 AM 51.8 °F 46.4 °F 82% 30.11 in 10.0 mi SSE 6.9 mph - N/A   Clear
5:55 AM 53.6 °F 46.4 °F 77% 30.11 in 10.0 mi SSE 6.9 mph - N/A   Clear
6:15 AM 51.8 °F 46.4 °F 82% 30.11 in 10.0 mi SSE 8.1 mph - N/A   Clear
6:35 AM 53.6 °F 46.4 °F 77% 30.11 in 10.0 mi South 9.2 mph - N/A   Clear
6:55 AM 53.6 °F 46.4 °F 77% 30.12 in 10.0 mi South 9.2 mph - N/A   Clear
7:15 AM 53.6 °F 46.4 °F 77% 30.13 in 10.0 mi South 8.1 mph - N/A   Clear
7:35 AM 53.6 °F 46.4 °F 77% 30.13 in 10.0 mi South 4.6 mph - N/A   Clear
7:55 AM 57.2 °F 48.2 °F 72% 30.13 in 10.0 mi SSE 4.6 mph - N/A   Clear
8:15 AM 59.0 °F 48.2 °F 67% 30.12 in 10.0 mi South 9.2 mph - N/A   Clear
8:35 AM 60.8 °F 48.2 °F 63% 30.12 in 10.0 mi South 12.7 mph - N/A   Clear
8:55 AM 62.6 °F 48.2 °F 59% 30.11 in 10.0 mi SSW 11.5 mph - N/A   Clear
9:15 AM 66.2 °F 48.2 °F 52% 30.11 in 10.0 mi South 18.4 mph - N/A   Clear
9:35 AM 66.2 °F 48.2 °F 52% 30.11 in 10.0 mi SSW 17.3 mph 26.5 mph N/A   Clear
9:55 AM 68.0 °F 48.2 °F 49% 30.11 in 10.0 mi South 17.3 mph 28.8 mph N/A   Clear
10:15 AM 68.0 °F 48.2 °F 49% 30.10 in 10.0 mi SSW 18.4 mph 26.5 mph N/A   Clear
10:35 AM 69.8 °F 48.2 °F 46% 30.10 in 10.0 mi SSW 20.7 mph 27.6 mph N/A   Clear
10:55 AM 71.6 °F 48.2 °F 43% 30.09 in 10.0 mi South 18.4 mph 25.3 mph N/A   Clear
11:15 AM 71.6 °F 48.2 °F 43% 30.09 in 10.0 mi South 19.6 mph 28.8 mph N/A   Clear
11:35 AM 73.4 °F 48.2 °F 41% 30.08 in 10.0 mi South 24.2 mph - N/A   Clear
11:55 AM 75.2 °F 46.4 °F 36% 30.07 in 10.0 mi South 20.7 mph 28.8 mph N/A   Clear
12:15 PM 75.2 °F 46.4 °F 36% 30.05 in 10.0 mi South 18.4 mph 26.5 mph N/A   Clear
12:35 PM 77.0 °F 48.2 °F 36% 30.05 in 10.0 mi South 18.4 mph 26.5 mph N/A   Clear
12:55 PM 78.8 °F 48.2 °F 34% 30.04 in 10.0 mi South 19.6 mph 25.3 mph N/A   Clear
1:15 PM 78.8 °F 46.4 °F 32% 30.03 in 10.0 mi South 18.4 mph 28.8 mph N/A   Clear
1:35 PM 80.6 °F 46.4 °F 30% 30.02 in 10.0 mi SSW 18.4 mph 25.3 mph N/A   Clear
1:55 PM 80.6 °F 46.4 °F 30% 30.01 in 10.0 mi South 16.1 mph 26.5 mph N/A   Clear
2:15 PM 82.4 °F 46.4 °F 28% 30.00 in 10.0 mi South 20.7 mph - N/A   Clear
2:35 PM 82.4 °F 46.4 °F 28% 29.99 in 10.0 mi SSW 18.4 mph 25.3 mph N/A   Clear
2:55 PM 84.2 °F 46.4 °F 27% 29.98 in 10.0 mi SSW 19.6 mph - N/A   Clear
3:15 PM 82.4 °F 46.4 °F 28% 29.97 in 10.0 mi South 19.6 mph 28.8 mph N/A   Clear
3:35 PM 84.2 °F 46.4 °F 27% 29.97 in 10.0 mi South 23.0 mph - N/A   Clear
3:55 PM 84.2 °F 46.4 °F 27% 29.96 in 10.0 mi South 21.9 mph 29.9 mph N/A   Clear
4:15 PM 84.2 °F 46.4 °F 27% 29.95 in 10.0 mi SSW 19.6 mph 27.6 mph N/A   Clear
4:35 PM 84.2 °F 46.4 °F 27% 29.95 in 10.0 mi South 18.4 mph 28.8 mph N/A   Clear
4:55 PM 84.2 °F 46.4 °F 27% 29.94 in 10.0 mi South 19.6 mph 27.6 mph N/A   Clear
5:15 PM 84.2 °F 48.2 °F 29% 29.94 in 10.0 mi South 16.1 mph 26.5 mph N/A   Clear
5:35 PM 84.2 °F 48.2 °F 29% 29.93 in 10.0 mi South 21.9 mph 27.6 mph N/A   Clear
5:55 PM 84.2 °F 48.2 °F 29% 29.93 in 10.0 mi South 19.6 mph 26.5 mph N/A   Clear
6:15 PM 82.4 °F 48.2 °F 30% 29.93 in 10.0 mi South 18.4 mph 25.3 mph N/A   Clear
6:35 PM 82.4 °F 48.2 °F 30% 29.92 in 10.0 mi South 16.1 mph 27.6 mph N/A   Clear
6:55 PM 80.6 °F 48.2 °F 32% 29.91 in 10.0 mi South 20.7 mph - N/A   Clear
7:15 PM 78.8 °F 48.2 °F 34% 29.90 in 10.0 mi South 21.9 mph - N/A   Clear
7:35 PM 77.0 °F 48.2 °F 36% 29.90 in 10.0 mi South 18.4 mph 26.5 mph N/A   Clear
7:55 PM 75.2 °F 48.2 °F 38% 29.91 in 10.0 mi SSE 15.0 mph 20.7 mph N/A   Clear
8:15 PM 75.2 °F 50.0 °F 41% 29.92 in 10.0 mi SSE 13.8 mph 21.9 mph N/A   Clear
8:35 PM 73.4 °F 50.0 °F 44% 29.92 in 10.0 mi SSE 16.1 mph - N/A   Clear
8:55 PM 73.4 °F 50.0 °F 44% 29.93 in 10.0 mi SSE 13.8 mph - N/A   Clear
9:15 PM 71.6 °F 51.8 °F 50% 29.93 in 10.0 mi SSE 17.3 mph 23.0 mph N/A   Clear
9:35 PM 71.6 °F 51.8 °F 50% 29.93 in 10.0 mi SSE 20.7 mph - N/A   Clear
9:55 PM 69.8 °F 51.8 °F 53% 29.93 in 10.0 mi SSE 16.1 mph 24.2 mph N/A   Clear
10:15 PM 69.8 °F 51.8 °F 53% 29.93 in 10.0 mi South 13.8 mph - N/A   Clear
10:35 PM 68.0 °F 51.8 °F 56% 29.94 in 10.0 mi South 11.5 mph - N/A   Clear
10:55 PM 66.2 °F 51.8 °F 60% 29.93 in 10.0 mi South 12.7 mph - N/A   Clear
11:15 PM 66.2 °F 51.8 °F 60% 29.93 in 10.0 mi South 12.7 mph - N/A   Clear
11:35 PM 66.2 °F 51.8 °F 60% 29.93 in 10.0 mi South 12.7 mph 20.7 mph N/A   Clear
11:55 PM 66.2 °F 51.8 °F 60% 29.93 in 10.0 mi South 12.7 mph - N/A   Clear